This is the latest recevied weather packets stored in our database for station/object W2GRK-15. If no packets are shown the sender has not sent any weather packets the latest 10 day(s).
| Time | Temp. | Humidity | Pressure | Rain* | Wind** | Luminosity | Snow |
|---|---|---|---|---|---|---|---|
| 1777473785 | 16.67° C | 49% | 1015.7 hPa | 0 mm | - | 285 W/m² | - |
| 1777473262 | 16.67° C | 49% | 1015.9 hPa | 0 mm | - | 457 W/m² | - |
| 1777472778 | 16.67° C | 50% | 1015.8 hPa | 0 mm | - | 411 W/m² | - |
| 1777472750 | 16.67° C | 51% | 1015.5 hPa | 0 mm | - | 439 W/m² | - |
| 1777472310 | 16.67° C | 51% | 1015.6 hPa | 0 mm | - | 648 W/m² | - |
| 1777472117 | 16.67° C | 54% | 1015.6 hPa | 0 mm | - | 310 W/m² | - |
| 1777471875 | 16.11° C | 52% | 1015.8 hPa | 0 mm | - | 582 W/m² | - |
| 1777471521 | 16.67° C | 53% | 1015.7 hPa | 0 mm | - | 604 W/m² | - |
| 1777471456 | 16.67° C | 54% | 1015.7 hPa | 0 mm | - | 578 W/m² | - |
| 1777470747 | 16.11° C | 54% | 1016.1 hPa | 0 mm | - | 482 W/m² | - |
| 1777470683 | 16.11° C | 54% | 1015.9 hPa | 0 mm | - | 474 W/m² | - |
| 1777470619 | 15.56° C | 53% | 1016 hPa | 0 mm | - | 475 W/m² | - |
| 1777470136 | 15.56° C | 53% | 1016.1 hPa | 0 mm | - | 417 W/m² | - |
| 1777469604 | 15.56° C | 57% | 1016 hPa | 0 mm | - | 468 W/m² | - |
| 1777469120 | 15° C | 57% | 1016.2 hPa | 0 mm | - | 425 W/m² | - |
| 1777469008 | 15.56° C | 58% | 1016.2 hPa | 0 mm | - | 408 W/m² | - |
| 1777468899 | 15° C | 60% | 1016.3 hPa | 0 mm | - | 450 W/m² | - |
| 1777468169 | 15° C | 60% | 1016.4 hPa | 0 mm | - | 380 W/m² | - |
| 1777467686 | 14.44° C | 60% | 1016.2 hPa | 0 mm | - | 294 W/m² | - |
| 1777467642 | 14.44° C | 60% | 1016.1 hPa | 0 mm | - | 289 W/m² | - |
| 1777467445 | 14.44° C | 60% | 1016.1 hPa | 0 mm | - | 292 W/m² | - |
| 1777467400 | 14.44° C | 61% | 1016 hPa | 0 mm | - | 298 W/m² | - |
| 1777467267 | 14.44° C | 60% | 1016.4 hPa | 0 mm | - | 294 W/m² | - |
| 1777466365 | 14.44° C | 63% | 1016.6 hPa | 0 mm | - | 308 W/m² | - |
| 1777466079 | 13.33° C | 66% | 1016.4 hPa | 0 mm | - | 257 W/m² | - |
* Rain latest hour (hover to see other rain measurements)
** Current wind speed in m/s (hover to see current wind gust speed)